Location: Roland
(31.1349°N, 85.4372°W)
Time: 13:59:15
(UTC+00:00)

X-37B - Pass Details

Date: 10 March 2021
Orbit: 380 x 394 km, 45.0° (Epoch: 07 April)

Event Time Altitude Azimuth Distance (km) Brightness Sun altitude
Rises 00:05:51 0° 202° (SSW) 2,250 4.8 -5.1°
Reaches altitude 10° 00:08:17 10° 183° (S) 1,403 3.5 -5.6°
Maximum altitude 00:10:36 19° 136° (SE) 1,001 2.3 -6.1°
Drops below altitude 10° 00:12:56 10° 89° (E) 1,415 2.7 -6.6°
Enters shadow 00:13:16 - 85° (E) 1,521 2.9 -6.6°
